Powrót do katalogu

VIASAT 3-F3

AktywnyŁącznośćGEO
NORAD 68893·PAYLOAD·🇺🇸 United States

Wystrzelony Apr 29, 2026 z Cape Canaveral Space Force Station

Loading…

TLE

ŚwieżeSource: Space-Track

Epoka: Sep 14, 2026, 21:24 UTC

1 68893U 26096A   26257.89166728 -.00000130  00000-0  00000-0 0  9991
2 68893   0.0126 227.9942 0000224  18.9796 226.4789  1.00272528  1510

Śledź VIASAT 3-F3 w czasie rzeczywistym z AllMySat

Download on the App Store